Location: Norton
(51.3000°N, 0.8167°E)
Time: 14:01:41
(UTC+00:00)

Cosmos 1302 Rocket - Pass Details

Date: 03 March 2021
Orbit: 756 x 777 km, 74.0° (Epoch: 11 April)

Event Time Altitude Azimuth Distance (km) Brightness Sun altitude
Rises 18:08:34 0° 195° (SSW) 3,200 7.5 -5.1°
Reaches altitude 10° 18:10:55 10° 193° (SSW) 2,280 6.7 -5.5°
Maximum altitude 18:16:03 70° 111° (ESE) 809 4.0 -6.3°
Drops below altitude 10° 18:21:15 10° 28° (NNE) 2,305 6.2 -7.1°
Sets 18:23:38 0° 27° (NNE) 3,238 7.0 -7.4°
